DELTA 1 DEB, 2223

Orbit data source: Space-Track

DELTA 1 DEB, 2223 is space debris in SSO originally from a launch on Mon, 28 Feb 1966 UTC launched from the Air Force Eastern Test Range (AFETR). Debris objects in space refer to the collection of defunct objects orbiting the Earth. Examples of debris include non-operational satellites, rocket bodies, and fragments generated from explosions, collisions, or faulty payload assembly.

Loading next visibility...
Identifier
2223, 1966-016C
Orbit
SSO
Country
Flag of USUS
Related business
Manufacturer
Unknown
Mission
Spacecraft
Bus & Motor
Unknown
Mass
1 kg wet, 1 kg dry
Launch date (UTC)
1966-02-28 (60 years ago)
Launch vehicle
Unknown
Launch site
Air Force Eastern Test Range (AFETR)
Object type
Payload
Rocket body
Debris
Shape & HBR
Unknown
Radar Cross Section
Medium (>0.1 m² and <1 m²)

Expand to show TLE details & history
Last TLE update: 2 days ago

TLE from 2 days ago
0 DELTA 1 DEB
1 02223U 66016C   26174.54011625 -.00000028  00000-0  56743-4 0  9992
2 02223 100.7284 202.8357 0093536 198.6423 318.4893 12.87773714827773
Epoch: 2026-06-23T12:57Z
TLE epoch observation values (Epoch: 2026-06-23T12:57:46.043Z)
Latitude
23.16888°
Longitude
-78.68901°
Altitude
1,259.395 km
Speed
7.253 km/s
True Right ascension
01h 49m 51s
True Declination
23° 03' 10"
Sunlit
Object was in daylight at epoch
Visualization orbit readout
Latitude
Unknown
Longitude
Unknown
Altitude
Unknown
Speed
Unknown
Apparent Right ascension
Unknown
Apparent Declination
Unknown
Sunlit
N/A
Visualization observer readout
Local Sidereal Time
22:46:23
Azimuth
Unknown
Elevation
Unknown
Doppler factor
Unknown
Orbital elements
Apogee altitude
1,379.702 km
Perigee altitude
1,235.92 km
Semi-major axis
7,685.948 km
Eccentricity
0.00935
Inclination
100.7284°
RAAN
202.8357°
Arg. of periapsis
198.6423°
True anomaly
317.77267°
Mean anomaly
318.4893°
Eccentric anomaly
318.13161°
Mean motion
3.22105 °/min
Orbital period
111.76 mins
BSTAR
0.000056743
Loading maneuver chart data...
Computing Atmospheric mass density...
Loading historical data...
Loading historical data...
Loading historical data...
Loading historical data...
Loading historical data...
Loading historical data...
Loading historical data...
Other satellites on launch #16 in the year 1966 (1966-02-28 UTC)

Documentation

Showing up to 5 results
|